Regional Weather Roundup
Issued by NWS

Home | Current Version | Previous Version | Graphics & Text | Print | Product List | Glossary Off
Versions: 1 2 3 4 5 6 7 8 9 10 11 12 13 14 15 16 17 18 19 20 21 22 23 24 25 26 27 28 29 30 31 32 33 34 35 36 37 38 39 40 41 42 43 44 45 46 47 48 49 50

000
ASUS43 KMPX 041110
RWRMN
WEATHER ROUNDUP FOR MINNESOTA
NATIONAL WEATHER SERVICE TWIN CITIES/CHANHASSEN MN
600 AM CDT TUE AUG 04 2015


NOTE: "FAIR" INDICATES FEW OR NO CLOUDS BELOW 12,000 FEET WITH NO
SIGNIFICANT WEATHER AND/OR OBSTRUCTIONS TO VISIBILITY. N/A MEANS
CURRENT SKY AND/OR WEATHER CONDITIONS ARE NOT AVAILABLE.

MNZ060>063-068>070-041200-
   Twin Cities Metro

CITY           SKY/WX    TMP DP  RH WIND       PRES   REMARKS
TWIN CITIES    CLEAR     59  54  83 NW3       29.94S
ST PAUL        CLEAR     58  55  90 CALM      29.94F
CRYSTAL        CLEAR     56  52  86 CALM      29.93S
BLAINE         CLEAR     54  54 100 CALM      29.94S
LAKEVILLE      CLEAR     52  52 100 CALM      29.95R
EDEN PRAIRIE   CLEAR     58  54  86 SW3       29.94R
SOUTH ST PAUL  CLEAR     57  55  90 CALM      29.94S
LAKE ELMO      FOG       52  52 100 CALM      29.95S VSB 3/4
$$
MNZ001>005-007-008-013>017-022>024-027-028-041200-
   Northwest Minnesota

CITY           SKY/WX    TMP DP  RH WIND       PRES   REMARKS
BEMIDJI        CLEAR     44  41  88 W3        29.96R
HALLOCK        CLEAR     48  46  93 CALM      29.97S
ROSEAU         CLEAR     52  46  82 NW3       29.97R
WARROAD        CLEAR     52  46  82 NW5       29.97S
THIEF RVR FALL CLEAR     54  48  82 N5        29.98R
CROOKSTON      CLEAR     48  46  93 CALM      29.97R
FOSSTON        CLEAR     45  43  93 CALM      29.97S
DETROIT LAKES  CLEAR     55  54  94 CALM      29.96F
MOORHEAD       CLEAR     46  45  93 CALM      29.96S
PARK RAPIDS    CLEAR     48  45  89 CALM      29.96R
MAHNOMEN       FAIR      50  48  95 S5        29.96R
$$
MNZ006-009>011-018-025>026-041200-
   North Central Minnesota

CITY           SKY/WX    TMP DP  RH WIND       PRES   REMARKS
BAUDETTE       PTCLDY    51  50  96 NW5       29.94S
FLAG ISLAND    MOCLDY    57  52  82 N9        29.95S
INTL FALLS     CLOUDY    50  49  96 CALM      29.94R
WASKISH        CLEAR     55  52  88 NW3         N/A
BIG FORK       CLEAR     43  41  93 CALM      29.95R FOG
LONGVILLE      CLEAR     46  46 100 CALM      29.95R
GRAND RAPIDS     N/A     48  46  93 CALM      29.95R VSB 1/2
CRANE LAKE     CLOUDY    48  48 100 CALM      29.94R
ORR            MOCLDY    48  46  93 CALM      29.91S
COOK           CLEAR     46  46 100 CALM      29.94R
WALKER         FAIR      47  45  93 CALM      29.96R
$$
MNZ012-019>021-037-041200-
   Northeast Minnesota

CITY           SKY/WX    TMP DP  RH WIND       PRES   REMARKS
DULUTH         PTCLDY    53  49  86 NW6       29.92S
ELY            PTCLDY    46  46 100 CALM      29.92R FOG
HIBBING        CLEAR     43  43 100 CALM      29.94R FOG
EVELETH        CLEAR     52  50  93 NW3       29.94R
DULUTH HARBOR  CLEAR     61  54  77 NW9       29.92R
TWO HARBORS    CLEAR     55  50  82 NW5       29.90R
SILVER BAY     CLEAR     55  52  88 CALM      29.89S
GRAND MARAIS     N/A     52  50  93 CALM      29.88R
G MARAIS ARPRT RAIN      52  48  87 NW6       29.90R
$$
MNZ029>031-032-039>041-046>048-054>057-064-041200-
   West Central Minnesota

CITY           SKY/WX    TMP DP  RH WIND       PRES   REMARKS
FERGUS FALLS   CLEAR     55  52  88 NE3       29.95S
WHEATON        CLEAR     52  52 100 SW6       29.99R
MORRIS         CLEAR     48  48 100 CALM      29.97R
ALEXANDRIA     CLEAR     53  52  96 W3        29.97R
ELBOW LAKE     FAIR      55  55  99 CALM      29.96R FOG
WADENA         CLEAR     46  45  93 CALM      29.95S
GLENWOOD       FOG       52  50  93 SW6       29.97R VSB 1
APPLETON       CLEAR     50  48  93 SW8       29.98R FOG
BENSON         CLEAR     48  46  93 CALM      29.98R
ORTONVILLE     CLEAR     54  48  82 SW7       30.00R
MADISON        CLEAR     52  50  93 SW6       30.00R
WILLMAR        FAIR      48  46  93 CALM      29.99R
$$
MNZ033>034-036-042>043-049>051-058-059-041200-
   Central Minnesota

CITY           SKY/WX    TMP DP  RH WIND       PRES   REMARKS
ST CLOUD       CLEAR     49  47  93 CALM      29.95R
SAUK CENTRE    FAIR      49  49  98 CALM      29.96R
PAYNESVILLE    CLEAR     43  44 100 SW3       29.97R
AITKIN         CLEAR     48  43  81 CALM      29.93S HAZE
PINE RIVER     CLEAR     45  43  93 CALM      29.98S
BRAINERD       CLEAR     47  46  97 CALM      29.95S
STAPLES        CLEAR     48  46  93 CALM      29.96R
LONG PRAIRIE   FAIR      48  46  93 CALM      29.96R
LITCHFIELD     CLEAR     54  54 100 CALM      29.97R
BUFFALO        CLEAR     52  49  87 CALM      29.96R
$$
MNZ037-044-045-052-053-041200-
   East Central Minnesota

CITY           SKY/WX    TMP DP  RH WIND       PRES   REMARKS
PRINCETON      FOG       50  48  93 CALM      29.95S VSB 3/4
MORA           CLEAR     48  46  93 CALM      29.96S
CAMBRIDGE      CLEAR     54  46  76 CALM      29.93S
RUSH CITY      MOCLDY    50  49  96 CALM      29.94S FOG
MOOSE LAKE     CLEAR     50  48  93 CALM      29.92S
HINCKLEY       FAIR      50  50 100 CALM      29.94S
CLOQUET        CLEAR     52  48  87 W3        29.93S
MCGREGOR       CLEAR     45  45 100 CALM      29.95S
$$
MNZ071>073-080-081-089-090-097-098-041200-
   Southwest Minnesota

CITY           SKY/WX    TMP DP  RH WIND       PRES   REMARKS
MONTEVIDEO     CLEAR     52  45  76 W3        30.01R
GRANITE FALLS  CLEAR     52  52  98 SW5       30.01R
CANBY          CLEAR     53  49  88 CALM      30.01R
MARSHALL       CLEAR     52  46  82 CALM      30.01R
REDWOOD FALLS  CLEAR     55  51  86 SW8       29.99R
OLIVIA         CLEAR     46  45  93 SW6       29.98R
PIPESTONE      CLOUDY    57  52  82 SE3       30.01S
WINDOM         PTCLDY    52  46  82 CALM      30.01R
WORTHINGTON    MOCLDY    54  48  82 CALM      30.02R
JACKSON        PTCLDY    54  54 100 CALM      30.01R
TRACY          PTCLDY    59  54  82 SW6       30.01R
SLAYTON        MOCLDY    56  53  91 CALM      30.02R
$$
MNZ065>067-074>077-082>085-091>093-041200-
   South Central Minnesota

CITY           SKY/WX    TMP DP  RH WIND       PRES   REMARKS
MANKATO        CLEAR     55  50  82 SW5       29.99R
NEW ULM        CLEAR     50  48  93 SW3       29.99R
ST JAMES         N/A     52  48  87 CALM      30.01R
FAIRMONT       CLEAR     54  45  71 CALM      30.00R
GLENCOE        CLEAR     51  49  95 CALM      29.96R
FARIBAULT      CLEAR     50  48  93 CALM      29.97R
OWATONNA       CLEAR     48  46  93 CALM      29.98R
WASECA         CLEAR     50  46  87 CALM      30.00R
ALBERT LEA     CLEAR     52  52 100 CALM      29.98S
$$
MNZ078>079-086>088-094>096-041200-
   Southeast Minnesota

CITY           SKY/WX    TMP DP  RH WIND       PRES   REMARKS
ROCHESTER      CLEAR     52  50  93 CALM      29.98R
RED WING       CLEAR     54  52  94 CALM      29.94R
STANTON        CLEAR     51  49  92 CALM      29.95R
DODGE CENTER   CLEAR     50  48  93 SW5       29.98R
WINONA         CLEAR     55  54  94 CALM      29.95R
AUSTIN         CLEAR     55  52  88 CALM      29.98R
PRESTON        CLEAR     54  51  87 W3        29.98R
$$
ABBREVIATIONS USED IN REMARKS
   TC - TEMPERATURES IN CELSIUS
  WCI - WIND CHILL INDEX
   HX - HEAT INDEX
  VSB - VISIBILITY
$$


USA.gov is the U.S. government's official web portal to all federal, state and local government web resources and services.